Year,Month,Day,Hour,Minute,Value (Times are PST for temperature in C)
2012,09,28,00,00,13.70
2012,09,28,00,01,13.70
2012,09,28,00,02,13.70
2012,09,28,00,03,13.70
2012,09,28,00,04,13.70
2012,09,28,00,05,13.70
2012,09,28,00,06,13.70
2012,09,28,00,07,13.80
2012,09,28,00,08,13.80
2012,09,28,00,09,13.80
2012,09,28,00,10,13.80
2012,09,28,00,11,13.80
2012,09,28,00,12,13.90
2012,09,28,00,13,13.90
2012,09,28,00,14,13.90
2012,09,28,00,15,13.90
2012,09,28,00,16,14.00
2012,09,28,00,17,14.00
2012,09,28,00,18,14.10
2012,09,28,00,19,14.10
2012,09,28,00,20,14.10
2012,09,28,00,21,14.10
2012,09,28,00,22,14.10
2012,09,28,00,23,14.20
2012,09,28,00,24,14.20
2012,09,28,00,25,14.20
2012,09,28,00,26,14.20
2012,09,28,00,27,14.30
2012,09,28,00,28,14.30
2012,09,28,00,29,14.40
2012,09,28,00,30,14.40
2012,09,28,00,31,14.50
2012,09,28,00,32,14.60
2012,09,28,00,33,14.60
2012,09,28,00,34,14.70
2012,09,28,00,35,14.80
2012,09,28,00,36,14.80
2012,09,28,00,37,14.90
2012,09,28,00,38,14.90
2012,09,28,00,39,15.00
2012,09,28,00,40,15.00
2012,09,28,00,41,15.10
2012,09,28,00,42,15.10
2012,09,28,00,43,15.20
2012,09,28,00,44,15.20
2012,09,28,00,45,15.30
2012,09,28,00,46,15.30
2012,09,28,00,47,15.30
2012,09,28,00,48,15.40
2012,09,28,00,49,15.40
2012,09,28,00,50,15.50
2012,09,28,00,51,15.50
2012,09,28,00,52,15.60
2012,09,28,00,53,15.60
2012,09,28,00,54,15.60
2012,09,28,00,55,15.70
2012,09,28,00,56,15.70
2012,09,28,00,57,15.70
2012,09,28,00,58,15.70
2012,09,28,00,59,15.80
2012,09,28,01,00,15.80
2012,09,28,01,01,15.80
2012,09,28,01,02,15.80
2012,09,28,01,03,15.80
2012,09,28,01,04,15.80
2012,09,28,01,05,15.80
2012,09,28,01,06,15.80
2012,09,28,01,07,15.80
2012,09,28,01,08,15.80
2012,09,28,01,09,15.70
2012,09,28,01,10,15.70
2012,09,28,01,11,15.70
2012,09,28,01,12,15.70
2012,09,28,01,13,15.70
2012,09,28,01,14,15.70
2012,09,28,01,15,15.70
2012,09,28,01,16,15.60
2012,09,28,01,17,15.60
2012,09,28,01,18,15.60
2012,09,28,01,19,15.60
2012,09,28,01,20,15.60
2012,09,28,01,21,15.60
2012,09,28,01,22,15.60
2012,09,28,01,23,15.60
2012,09,28,01,24,15.50
2012,09,28,01,25,15.50
2012,09,28,01,26,15.50
2012,09,28,01,27,15.50
2012,09,28,01,28,15.40
2012,09,28,01,29,15.40
2012,09,28,01,30,15.40
2012,09,28,01,31,15.40
2012,09,28,01,32,15.40
2012,09,28,01,33,15.40
2012,09,28,01,34,15.40
2012,09,28,01,35,15.40
2012,09,28,01,36,15.40
2012,09,28,01,37,15.30
2012,09,28,01,38,15.40
2012,09,28,01,39,15.40
2012,09,28,01,40,15.30
2012,09,28,01,41,15.40
2012,09,28,01,42,15.40
2012,09,28,01,43,15.40
2012,09,28,01,44,15.40
2012,09,28,01,45,15.30
2012,09,28,01,46,15.30
2012,09,28,01,47,15.30
2012,09,28,01,48,15.30
2012,09,28,01,49,15.30
2012,09,28,01,50,15.30
2012,09,28,01,51,15.30
2012,09,28,01,52,15.30
2012,09,28,01,53,15.30
2012,09,28,01,54,15.30
2012,09,28,01,55,15.30
2012,09,28,01,56,15.30
2012,09,28,01,57,15.30
2012,09,28,01,58,15.30
2012,09,28,01,59,15.30
2012,09,28,02,00,15.30
2012,09,28,02,01,15.30
2012,09,28,02,02,15.30
2012,09,28,02,03,15.40
2012,09,28,02,04,15.40
2012,09,28,02,05,15.40
2012,09,28,02,06,15.40
2012,09,28,02,07,15.40
2012,09,28,02,08,15.40
2012,09,28,02,09,15.40
2012,09,28,02,10,15.50
2012,09,28,02,11,15.50
2012,09,28,02,12,15.50
2012,09,28,02,13,15.50
2012,09,28,02,14,15.50
2012,09,28,02,15,15.60
2012,09,28,02,16,15.60
2012,09,28,02,17,15.60
2012,09,28,02,18,15.60
2012,09,28,02,19,15.60
2012,09,28,02,20,15.60
2012,09,28,02,21,15.60
2012,09,28,02,22,15.60
2012,09,28,02,23,15.60
2012,09,28,02,24,15.60
2012,09,28,02,25,15.60
2012,09,28,02,26,15.60
2012,09,28,02,27,15.60
2012,09,28,02,28,15.60
2012,09,28,02,29,15.60
2012,09,28,02,30,15.60
2012,09,28,02,31,15.60
2012,09,28,02,32,15.60
2012,09,28,02,33,15.60
2012,09,28,02,34,15.60
2012,09,28,02,35,15.60
2012,09,28,02,36,15.60
2012,09,28,02,37,15.60
2012,09,28,02,38,15.60
2012,09,28,02,39,15.60
2012,09,28,02,40,15.60
2012,09,28,02,41,15.60
2012,09,28,02,42,15.60
2012,09,28,02,43,15.60
2012,09,28,02,44,15.60
2012,09,28,02,45,15.60
2012,09,28,02,46,15.60
2012,09,28,02,47,15.60
2012,09,28,02,48,15.60
2012,09,28,02,49,15.60
2012,09,28,02,50,15.60
2012,09,28,02,51,15.60
2012,09,28,02,52,15.60
2012,09,28,02,53,15.60
2012,09,28,02,54,15.60
2012,09,28,02,55,15.60
2012,09,28,02,56,15.60
2012,09,28,02,57,15.50
2012,09,28,02,58,15.50
2012,09,28,02,59,15.50
2012,09,28,03,00,15.50
2012,09,28,03,01,15.50
2012,09,28,03,02,15.50
2012,09,28,03,06,15.40
2012,09,28,03,07,15.40
2012,09,28,03,08,15.40
2012,09,28,03,09,15.30
2012,09,28,03,10,15.30
2012,09,28,03,11,15.30
2012,09,28,03,12,15.30
2012,09,28,03,13,15.30
2012,09,28,03,14,15.30
2012,09,28,03,15,15.30
2012,09,28,03,16,15.30
2012,09,28,03,17,15.30
2012,09,28,03,18,15.30
2012,09,28,03,19,15.30
2012,09,28,03,20,15.30
2012,09,28,03,21,15.30
2012,09,28,03,22,15.30
2012,09,28,03,23,15.20
2012,09,28,03,24,15.20
2012,09,28,03,25,15.20
2012,09,28,03,26,15.20
2012,09,28,03,27,15.20
2012,09,28,03,28,15.20
2012,09,28,03,29,15.20
2012,09,28,03,30,15.20
2012,09,28,03,31,15.20
2012,09,28,03,32,15.20
2012,09,28,03,33,15.20
2012,09,28,03,34,15.10
2012,09,28,03,35,15.10
2012,09,28,03,36,15.10
2012,09,28,03,37,15.10
2012,09,28,03,38,15.10
2012,09,28,03,39,15.10
2012,09,28,03,40,15.10
2012,09,28,03,41,15.10
2012,09,28,03,42,15.10
2012,09,28,03,43,15.10
2012,09,28,03,44,15.10
2012,09,28,03,45,15.10
2012,09,28,03,46,15.20
2012,09,28,03,47,15.10
2012,09,28,03,48,15.10
2012,09,28,03,49,15.10
2012,09,28,03,50,15.10
2012,09,28,03,51,15.10
2012,09,28,03,52,15.10
2012,09,28,03,53,15.10
2012,09,28,03,54,15.10
2012,09,28,03,55,15.10
2012,09,28,03,56,15.10
2012,09,28,03,57,15.10
2012,09,28,03,58,15.10
2012,09,28,03,59,15.10
2012,09,28,04,00,15.10
2012,09,28,04,01,15.10
2012,09,28,04,02,15.20
2012,09,28,04,03,15.20
2012,09,28,04,04,15.20
2012,09,28,04,05,15.20
2012,09,28,04,06,15.20
2012,09,28,04,07,15.20
2012,09,28,04,08,15.20
2012,09,28,04,09,15.30
2012,09,28,04,10,15.30
2012,09,28,04,11,15.30
2012,09,28,04,12,15.30
2012,09,28,04,13,15.30
2012,09,28,04,14,15.30
2012,09,28,04,15,15.30
2012,09,28,04,16,15.30
2012,09,28,04,17,15.30
2012,09,28,04,18,15.30
2012,09,28,04,19,15.30
2012,09,28,04,20,15.30
2012,09,28,04,21,15.30
2012,09,28,04,22,15.30
2012,09,28,04,23,15.30
2012,09,28,04,24,15.30
2012,09,28,04,25,15.30
2012,09,28,04,26,15.30
2012,09,28,04,27,15.30
2012,09,28,04,28,15.30
2012,09,28,04,29,15.30
2012,09,28,04,30,15.30
2012,09,28,04,31,15.30
2012,09,28,04,32,15.30
2012,09,28,04,33,15.30
2012,09,28,04,34,15.30
2012,09,28,04,35,15.30
2012,09,28,04,36,15.30
2012,09,28,04,37,15.30
2012,09,28,04,38,15.30
2012,09,28,04,39,15.20
2012,09,28,04,40,15.20
2012,09,28,04,41,15.20
2012,09,28,04,42,15.20
2012,09,28,04,43,15.20
2012,09,28,04,44,15.10
2012,09,28,04,45,15.10
2012,09,28,04,46,15.10
2012,09,28,04,47,15.00
2012,09,28,04,48,15.00
2012,09,28,04,49,15.00
2012,09,28,04,50,15.00
2012,09,28,04,51,14.90
2012,09,28,04,52,14.90
2012,09,28,04,53,14.90
2012,09,28,04,54,14.90
2012,09,28,04,55,14.90
2012,09,28,04,56,14.80
2012,09,28,04,57,14.80
2012,09,28,04,58,14.80
2012,09,28,04,59,14.80
2012,09,28,05,00,14.80
2012,09,28,05,01,14.80
2012,09,28,05,02,14.80
2012,09,28,05,03,14.80
2012,09,28,05,04,14.80
2012,09,28,05,05,14.80
2012,09,28,05,06,14.90
2012,09,28,05,07,14.90
2012,09,28,05,08,14.90
2012,09,28,05,09,14.90
2012,09,28,05,10,14.90
2012,09,28,05,11,15.00
2012,09,28,05,12,15.00
2012,09,28,05,13,15.00
2012,09,28,05,14,15.00
2012,09,28,05,15,15.00
2012,09,28,05,16,15.00
2012,09,28,05,17,15.00
2012,09,28,05,18,15.00
2012,09,28,05,19,15.00
2012,09,28,05,20,15.00
2012,09,28,05,21,14.90
2012,09,28,05,22,14.90
2012,09,28,05,23,14.90
2012,09,28,05,24,14.90
2012,09,28,05,25,14.90
2012,09,28,05,26,14.90
2012,09,28,05,27,14.90
2012,09,28,05,28,14.80
2012,09,28,05,29,14.80
2012,09,28,05,30,14.80
2012,09,28,05,31,14.80
2012,09,28,05,32,14.70
2012,09,28,05,33,14.70
2012,09,28,05,34,14.70
2012,09,28,05,35,14.70
2012,09,28,05,36,14.60
2012,09,28,05,37,14.60
2012,09,28,05,38,14.60
2012,09,28,05,39,14.60
2012,09,28,05,40,14.50
2012,09,28,05,41,14.50
2012,09,28,05,42,14.40
2012,09,28,05,43,14.40
2012,09,28,05,44,14.40
2012,09,28,05,45,14.30
2012,09,28,05,46,14.30
2012,09,28,05,47,14.30
2012,09,28,05,48,14.30
2012,09,28,05,49,14.20
2012,09,28,05,50,14.20
2012,09,28,05,51,14.20
2012,09,28,05,52,14.20
2012,09,28,05,53,14.20
2012,09,28,05,54,14.20
2012,09,28,05,55,14.20
2012,09,28,05,56,14.10
2012,09,28,05,57,14.10
2012,09,28,05,58,14.10
2012,09,28,05,59,14.10
2012,09,28,06,00,14.10
2012,09,28,06,01,14.10
2012,09,28,06,02,14.10
2012,09,28,06,03,14.10
2012,09,28,06,04,14.10
2012,09,28,06,05,14.10
2012,09,28,06,06,14.20
2012,09,28,06,07,14.20
2012,09,28,06,08,14.20
2012,09,28,06,09,14.20
2012,09,28,06,10,14.20
2012,09,28,06,11,14.20
2012,09,28,06,12,14.20
2012,09,28,06,13,14.20
2012,09,28,06,14,14.20
2012,09,28,06,15,14.20
2012,09,28,06,16,14.20
2012,09,28,06,17,14.20
2012,09,28,06,18,14.20
2012,09,28,06,19,14.20
2012,09,28,06,20,14.20
2012,09,28,06,21,14.20
2012,09,28,06,22,14.20
2012,09,28,06,23,14.20
2012,09,28,06,24,14.20
2012,09,28,06,25,14.30
2012,09,28,06,26,14.30
2012,09,28,06,27,14.30
2012,09,28,06,28,14.30
2012,09,28,06,29,14.30
2012,09,28,06,30,14.30
2012,09,28,06,31,14.30
2012,09,28,06,32,14.40
2012,09,28,06,33,14.40
2012,09,28,06,34,14.40
2012,09,28,06,35,14.40
2012,09,28,06,36,14.40
2012,09,28,06,37,14.40
2012,09,28,06,38,14.40
2012,09,28,06,39,14.40
2012,09,28,06,40,14.50
2012,09,28,06,41,14.50
2012,09,28,06,42,14.60
2012,09,28,06,43,14.60
2012,09,28,06,44,14.70
2012,09,28,06,45,14.70
2012,09,28,06,46,14.70
2012,09,28,06,47,14.70
2012,09,28,06,48,14.80
2012,09,28,06,49,14.80
2012,09,28,06,50,14.80
2012,09,28,06,51,14.80
2012,09,28,06,52,14.80
2012,09,28,06,53,14.80
2012,09,28,06,54,14.80
2012,09,28,06,55,14.80
2012,09,28,06,56,14.80
2012,09,28,06,57,14.80
2012,09,28,06,58,14.80
2012,09,28,06,59,14.80
2012,09,28,07,00,14.80
2012,09,28,07,01,14.80
2012,09,28,07,02,14.80
2012,09,28,07,03,14.80
2012,09,28,07,04,14.80
2012,09,28,07,05,14.80
2012,09,28,07,06,14.80
2012,09,28,07,07,14.80
2012,09,28,07,08,14.80
2012,09,28,07,09,14.80
2012,09,28,07,10,14.80
2012,09,28,07,11,14.80
2012,09,28,07,12,14.80
2012,09,28,07,13,14.80
2012,09,28,07,14,14.80
2012,09,28,07,15,14.80
2012,09,28,07,16,14.80
2012,09,28,07,17,14.80
2012,09,28,07,18,14.90
2012,09,28,07,19,14.90
2012,09,28,07,20,14.90
2012,09,28,07,21,14.90
2012,09,28,07,22,14.90
2012,09,28,07,23,15.00
2012,09,28,07,24,15.00
2012,09,28,07,25,15.00
2012,09,28,07,26,15.00
2012,09,28,07,27,15.10
2012,09,28,07,28,15.10
2012,09,28,07,29,15.10
2012,09,28,07,30,15.10
2012,09,28,07,31,15.10
2012,09,28,07,32,15.00
2012,09,28,07,33,15.00
2012,09,28,07,34,15.00
2012,09,28,07,35,15.00
2012,09,28,07,36,15.00
2012,09,28,07,37,15.00
2012,09,28,07,38,15.00
2012,09,28,07,39,15.00
2012,09,28,07,40,15.00
2012,09,28,07,41,15.00
2012,09,28,07,42,15.00
2012,09,28,07,43,15.00
2012,09,28,07,44,15.00
2012,09,28,07,45,15.00
2012,09,28,07,46,15.00
2012,09,28,07,47,15.00
2012,09,28,07,48,15.00
2012,09,28,07,49,14.90
2012,09,28,07,50,14.90
2012,09,28,07,51,15.00
2012,09,28,07,52,14.90
2012,09,28,07,53,15.00
2012,09,28,07,54,14.90
2012,09,28,07,55,14.90
2012,09,28,07,56,14.90
2012,09,28,07,57,14.90
2012,09,28,07,58,14.90
2012,09,28,07,59,14.80
2012,09,28,08,00,14.80
2012,09,28,08,01,14.80
2012,09,28,08,02,14.80
2012,09,28,08,03,14.80
2012,09,28,08,04,14.80
2012,09,28,08,05,14.70
2012,09,28,08,06,14.70
2012,09,28,08,07,14.70
2012,09,28,08,08,14.70
2012,09,28,08,09,14.70
2012,09,28,08,10,14.70
2012,09,28,08,11,14.60
2012,09,28,08,12,14.60
2012,09,28,08,13,14.60
2012,09,28,08,14,14.60
2012,09,28,08,15,14.60
2012,09,28,08,16,14.60
2012,09,28,08,17,14.60
2012,09,28,08,18,14.60
2012,09,28,08,19,14.50
2012,09,28,08,20,14.50
2012,09,28,08,21,14.50
2012,09,28,08,22,14.50
2012,09,28,08,23,14.50
2012,09,28,08,24,14.50
2012,09,28,08,25,14.50
2012,09,28,08,26,14.50
2012,09,28,08,27,14.50
2012,09,28,08,28,14.50
2012,09,28,08,29,14.50
2012,09,28,08,30,14.50
2012,09,28,08,31,14.50
2012,09,28,08,32,14.60
2012,09,28,08,33,14.60
2012,09,28,08,34,14.60
2012,09,28,08,35,14.60
2012,09,28,08,36,14.60
2012,09,28,08,37,14.60
2012,09,28,08,38,14.60
2012,09,28,08,39,14.60
2012,09,28,08,40,14.60
2012,09,28,08,41,14.60
2012,09,28,08,42,14.60
2012,09,28,08,43,14.60
2012,09,28,08,44,14.70
2012,09,28,08,45,14.70
2012,09,28,08,46,14.70
2012,09,28,08,47,14.70
2012,09,28,08,48,14.70
2012,09,28,08,49,14.70
2012,09,28,08,50,14.70
2012,09,28,08,51,14.70
2012,09,28,08,52,14.70
2012,09,28,08,53,14.70
2012,09,28,08,54,14.70
2012,09,28,08,55,14.70
2012,09,28,08,56,14.70
2012,09,28,08,57,14.70
2012,09,28,08,58,14.80
2012,09,28,08,59,14.80
2012,09,28,09,00,14.80
2012,09,28,09,01,14.80
2012,09,28,09,02,14.80
2012,09,28,09,03,14.80
2012,09,28,09,04,14.80
2012,09,28,09,05,14.80
2012,09,28,09,06,14.80
2012,09,28,09,07,14.80
2012,09,28,09,08,14.80
2012,09,28,09,09,14.90
2012,09,28,09,10,14.90
2012,09,28,09,11,14.90
2012,09,28,09,12,14.90
2012,09,28,09,13,14.90
2012,09,28,09,14,15.00
2012,09,28,09,15,15.00
2012,09,28,09,16,15.00
2012,09,28,09,17,15.10
2012,09,28,09,18,15.10
2012,09,28,09,19,15.10
2012,09,28,09,20,15.10
2012,09,28,09,21,15.10
2012,09,28,09,22,15.20
2012,09,28,09,23,15.20
2012,09,28,09,24,15.20
2012,09,28,09,25,15.20
2012,09,28,09,26,15.20
2012,09,28,09,27,15.20
2012,09,28,09,28,15.20
2012,09,28,09,29,15.20
2012,09,28,09,30,15.30
2012,09,28,09,31,15.30
2012,09,28,09,32,15.30
2012,09,28,09,33,15.30
2012,09,28,09,34,15.30
2012,09,28,09,35,15.40
2012,09,28,09,36,15.40
2012,09,28,09,37,15.40
2012,09,28,09,38,15.40
2012,09,28,09,39,15.40
2012,09,28,09,40,15.50
2012,09,28,09,41,15.50
2012,09,28,09,42,15.60
2012,09,28,09,43,15.60
2012,09,28,09,44,15.60
2012,09,28,09,45,15.70
2012,09,28,09,46,15.70
2012,09,28,09,47,15.70
2012,09,28,09,48,15.80
2012,09,28,09,49,15.80
2012,09,28,09,50,15.90
2012,09,28,09,51,15.90
2012,09,28,09,52,16.00
2012,09,28,09,53,16.10
2012,09,28,09,54,16.20
2012,09,28,09,55,16.20
2012,09,28,09,56,16.30
2012,09,28,09,57,16.30
2012,09,28,09,58,16.40
2012,09,28,09,59,16.40
2012,09,28,10,00,16.50
2012,09,28,10,01,16.50
2012,09,28,10,02,16.50
2012,09,28,10,03,16.50
2012,09,28,10,04,16.50
2012,09,28,10,05,16.50
2012,09,28,10,06,16.50
2012,09,28,10,07,16.50
2012,09,28,10,08,16.50
2012,09,28,10,09,16.50
2012,09,28,10,10,16.50
2012,09,28,10,11,16.50
2012,09,28,10,12,16.50
2012,09,28,10,13,16.50
2012,09,28,10,14,16.50
2012,09,28,10,15,16.50
2012,09,28,10,16,16.60
2012,09,28,10,17,16.60
2012,09,28,10,18,16.60
2012,09,28,10,19,16.60
2012,09,28,10,20,16.60
2012,09,28,10,21,16.50
2012,09,28,10,22,16.50
2012,09,28,10,23,16.50
2012,09,28,10,24,16.50
2012,09,28,10,25,16.60
2012,09,28,10,26,16.60
2012,09,28,10,27,16.60
2012,09,28,10,28,16.60
2012,09,28,10,29,16.60
2012,09,28,10,30,16.60
2012,09,28,10,31,16.60
2012,09,28,10,32,16.70
2012,09,28,10,33,16.70
2012,09,28,10,34,16.70
2012,09,28,10,35,16.80
2012,09,28,10,36,16.80
2012,09,28,10,37,16.80
2012,09,28,10,38,16.90
2012,09,28,10,39,16.90
2012,09,28,10,40,16.90
2012,09,28,10,41,16.90
2012,09,28,10,42,16.90
2012,09,28,10,43,17.00
2012,09,28,10,44,17.00
2012,09,28,10,45,17.00
2012,09,28,10,46,17.00
2012,09,28,10,47,17.00
2012,09,28,10,48,17.10
2012,09,28,10,49,17.10
2012,09,28,10,50,17.10
2012,09,28,10,51,17.10
2012,09,28,10,52,17.10
2012,09,28,10,53,17.00
2012,09,28,10,54,17.00
2012,09,28,10,55,17.00
2012,09,28,10,56,17.00
2012,09,28,10,57,16.90
2012,09,28,10,58,16.90
2012,09,28,10,59,16.90
2012,09,28,11,00,16.90
2012,09,28,11,01,16.90
2012,09,28,11,02,16.90
2012,09,28,11,03,16.90
2012,09,28,11,04,16.90
2012,09,28,11,05,16.90
2012,09,28,11,06,16.90
2012,09,28,11,07,16.90
2012,09,28,11,08,17.00
2012,09,28,11,09,17.00
2012,09,28,11,10,17.00
2012,09,28,11,11,17.10
2012,09,28,11,12,17.10
2012,09,28,11,13,17.10
2012,09,28,11,14,17.20
2012,09,28,11,15,17.20
2012,09,28,11,16,17.20
2012,09,28,11,17,17.20
2012,09,28,11,18,17.10
2012,09,28,11,19,17.10
2012,09,28,11,20,17.10
2012,09,28,11,21,17.00
2012,09,28,11,22,17.00
2012,09,28,11,23,17.00
2012,09,28,11,24,16.90
2012,09,28,11,25,16.90
2012,09,28,11,26,16.90
2012,09,28,11,27,16.90
2012,09,28,11,28,16.90
2012,09,28,11,29,16.90
2012,09,28,11,30,16.90
2012,09,28,11,31,16.90
2012,09,28,11,32,16.90
2012,09,28,11,33,16.90
2012,09,28,11,34,16.80
2012,09,28,11,35,16.80
2012,09,28,11,36,16.80
2012,09,28,11,37,16.80
2012,09,28,11,38,16.70
2012,09,28,11,39,16.70
2012,09,28,11,40,16.60
2012,09,28,11,41,16.60
2012,09,28,11,42,16.50
2012,09,28,11,43,16.50
2012,09,28,11,44,16.40
2012,09,28,11,45,16.40
2012,09,28,11,46,16.30
2012,09,28,11,47,16.30
2012,09,28,11,48,16.20
2012,09,28,11,49,16.20
2012,09,28,11,50,16.20
2012,09,28,11,51,16.10
2012,09,28,11,52,16.10
2012,09,28,11,53,16.00
2012,09,28,11,54,15.90
2012,09,28,11,55,15.90
2012,09,28,11,56,15.90
2012,09,28,11,57,15.80
2012,09,28,11,58,15.80
2012,09,28,11,59,15.80
2012,09,28,12,00,15.80
2012,09,28,12,01,15.80
2012,09,28,12,02,15.70
2012,09,28,12,03,15.70
2012,09,28,12,04,15.70
2012,09,28,12,05,15.70
2012,09,28,12,06,15.70
2012,09,28,12,07,15.70
2012,09,28,12,08,15.60
2012,09,28,12,09,15.60
2012,09,28,12,10,15.60
2012,09,28,12,11,15.60
2012,09,28,12,12,15.60
2012,09,28,12,13,15.50
2012,09,28,12,14,15.50
2012,09,28,12,15,15.50
2012,09,28,12,16,15.50
2012,09,28,12,17,15.50
2012,09,28,12,18,15.40
2012,09,28,12,19,15.40
2012,09,28,12,20,15.40
2012,09,28,12,21,15.40
2012,09,28,12,22,15.40
2012,09,28,12,23,15.40
2012,09,28,12,24,15.30
2012,09,28,12,25,15.30
2012,09,28,12,26,15.30
2012,09,28,12,27,15.30
2012,09,28,12,28,15.30
2012,09,28,12,29,15.30
2012,09,28,12,30,15.30
2012,09,28,12,31,15.30
2012,09,28,12,32,15.30
2012,09,28,12,33,15.30
2012,09,28,12,34,15.30
2012,09,28,12,35,15.30
2012,09,28,12,36,15.40
2012,09,28,12,37,15.40
2012,09,28,12,38,15.40
2012,09,28,12,39,15.30
2012,09,28,12,40,15.30
2012,09,28,12,41,15.30
2012,09,28,12,42,15.30
2012,09,28,12,43,15.30
2012,09,28,12,44,15.30
2012,09,28,12,45,15.30
2012,09,28,12,46,15.30
2012,09,28,12,47,15.30
2012,09,28,12,48,15.30
2012,09,28,12,49,15.30
2012,09,28,12,50,15.30
2012,09,28,12,51,15.30
2012,09,28,12,52,15.30
2012,09,28,12,53,15.20
2012,09,28,12,54,15.20
2012,09,28,12,55,15.20
2012,09,28,12,56,15.20
2012,09,28,12,57,15.20
2012,09,28,12,58,15.20
2012,09,28,12,59,15.20
2012,09,28,13,00,15.20
2012,09,28,13,01,15.20
2012,09,28,13,02,15.20
2012,09,28,13,03,15.20
2012,09,28,13,04,15.10
2012,09,28,13,05,15.10
2012,09,28,13,06,15.10
2012,09,28,13,07,15.10
2012,09,28,13,08,15.10
2012,09,28,13,09,15.10
2012,09,28,13,10,15.10
2012,09,28,13,11,15.10
2012,09,28,13,12,15.10
2012,09,28,13,13,15.10
2012,09,28,13,14,15.10
2012,09,28,13,15,15.10
2012,09,28,13,16,15.10
2012,09,28,13,17,15.20
2012,09,28,13,18,15.20
2012,09,28,13,19,15.20
2012,09,28,13,20,15.20
2012,09,28,13,21,15.20
2012,09,28,13,22,15.20
2012,09,28,13,23,15.20
2012,09,28,13,24,15.20
2012,09,28,13,25,15.20
2012,09,28,13,26,15.20
2012,09,28,13,27,15.20
2012,09,28,13,28,15.20
2012,09,28,13,29,15.20
2012,09,28,13,30,15.20
2012,09,28,13,31,15.20
2012,09,28,13,32,15.20
2012,09,28,13,33,15.20
2012,09,28,13,34,15.20
2012,09,28,13,35,15.20
2012,09,28,13,36,15.20
2012,09,28,13,37,15.20
2012,09,28,13,38,15.20
2012,09,28,13,39,15.20
2012,09,28,13,40,15.30
2012,09,28,13,41,15.30
2012,09,28,13,42,15.30
2012,09,28,13,43,15.40
2012,09,28,13,44,15.40
2012,09,28,13,45,15.40
2012,09,28,13,46,15.40
2012,09,28,13,47,15.40
2012,09,28,13,48,15.40
2012,09,28,13,49,15.40
2012,09,28,13,50,15.40
2012,09,28,13,51,15.30
2012,09,28,13,52,15.30
2012,09,28,13,53,15.40
2012,09,28,13,54,15.40
2012,09,28,13,55,15.40
2012,09,28,13,56,15.40
2012,09,28,13,57,15.40
2012,09,28,13,58,15.40
2012,09,28,13,59,15.40
2012,09,28,14,00,15.40
2012,09,28,14,01,15.40
2012,09,28,14,02,15.40
2012,09,28,14,03,15.40
2012,09,28,14,04,15.40
2012,09,28,14,05,15.40
2012,09,28,14,06,15.40
2012,09,28,14,07,15.40
2012,09,28,14,08,15.40
2012,09,28,14,09,15.40
2012,09,28,14,10,15.40
2012,09,28,14,11,15.40
2012,09,28,14,12,15.40
2012,09,28,14,13,15.40
2012,09,28,14,14,15.40
2012,09,28,14,15,15.40
2012,09,28,14,16,15.50
2012,09,28,14,17,15.50
2012,09,28,14,18,15.50
2012,09,28,14,19,15.50
2012,09,28,14,20,15.50
2012,09,28,14,21,15.50
2012,09,28,14,22,15.50
2012,09,28,14,23,15.40
2012,09,28,14,24,15.40
2012,09,28,14,25,15.30
2012,09,28,14,26,15.30
2012,09,28,14,27,15.20
2012,09,28,14,28,15.20
2012,09,28,14,29,15.20
2012,09,28,14,30,15.20
2012,09,28,14,31,15.20
2012,09,28,14,32,15.10
2012,09,28,14,33,15.10
2012,09,28,14,34,15.20
2012,09,28,14,35,15.20
2012,09,28,14,36,15.30
2012,09,28,14,37,15.30
2012,09,28,14,38,15.40
2012,09,28,14,39,15.40
2012,09,28,14,40,15.40
2012,09,28,14,41,15.40
2012,09,28,14,42,15.40
2012,09,28,14,43,15.40
2012,09,28,14,44,15.30
2012,09,28,14,45,15.30
2012,09,28,14,46,15.20
2012,09,28,14,47,15.20
2012,09,28,14,48,15.10
2012,09,28,14,49,15.10
2012,09,28,14,50,15.10
2012,09,28,14,51,15.10
2012,09,28,14,52,15.10
2012,09,28,14,53,15.10
2012,09,28,14,54,15.10
2012,09,28,14,55,15.20
2012,09,28,14,56,15.20
2012,09,28,14,57,15.20
2012,09,28,14,58,15.20
2012,09,28,14,59,15.20
2012,09,28,15,00,15.20
2012,09,28,15,01,15.20
2012,09,28,15,02,15.30
2012,09,28,15,03,15.30
2012,09,28,15,04,15.40
2012,09,28,15,05,15.40
2012,09,28,15,06,15.40
2012,09,28,15,07,15.50
2012,09,28,15,08,15.50
2012,09,28,15,09,15.50
2012,09,28,15,10,15.60
2012,09,28,15,11,15.60
2012,09,28,15,12,15.60
2012,09,28,15,13,15.60
2012,09,28,15,14,15.60
2012,09,28,15,15,15.60
2012,09,28,15,16,15.60
2012,09,28,15,17,15.60
2012,09,28,15,18,15.60
2012,09,28,15,19,15.60
2012,09,28,15,20,15.50
2012,09,28,15,21,15.50
2012,09,28,15,22,15.50
2012,09,28,15,23,15.60
2012,09,28,15,24,15.60
2012,09,28,15,25,15.60
2012,09,28,15,26,15.60
2012,09,28,15,27,15.70
2012,09,28,15,28,15.70
2012,09,28,15,29,15.80
2012,09,28,15,30,15.80
2012,09,28,15,31,15.80
2012,09,28,15,32,15.90
2012,09,28,15,33,15.90
2012,09,28,15,34,15.90
2012,09,28,15,35,15.90
2012,09,28,15,36,16.00
2012,09,28,15,37,16.00
2012,09,28,15,38,16.10
2012,09,28,15,39,16.10
2012,09,28,15,40,16.10
2012,09,28,15,41,16.10
2012,09,28,15,42,16.10
2012,09,28,15,43,16.10
2012,09,28,15,44,16.20
2012,09,28,15,45,16.20
2012,09,28,15,46,16.20
2012,09,28,15,47,16.20
2012,09,28,15,48,16.20
2012,09,28,15,49,16.10
2012,09,28,15,50,16.10
2012,09,28,15,51,16.10
2012,09,28,15,52,16.00
2012,09,28,15,53,15.90
2012,09,28,15,54,15.90
2012,09,28,15,55,15.80
2012,09,28,15,56,15.80
2012,09,28,15,57,15.80
2012,09,28,15,58,15.80
2012,09,28,15,59,15.80
2012,09,28,16,00,15.80
2012,09,28,16,01,15.80
2012,09,28,16,02,15.80
2012,09,28,16,03,15.80
2012,09,28,16,04,15.80
2012,09,28,16,05,15.80
2012,09,28,16,06,15.70
2012,09,28,16,07,15.70
2012,09,28,16,08,15.70
2012,09,28,16,09,15.70
2012,09,28,16,10,15.70
2012,09,28,16,11,15.70
2012,09,28,16,12,15.70
2012,09,28,16,13,15.70
2012,09,28,16,14,15.70
2012,09,28,16,15,15.80
2012,09,28,16,16,15.80
2012,09,28,16,17,15.80
2012,09,28,16,18,15.80
2012,09,28,16,19,15.80
2012,09,28,16,20,15.80
2012,09,28,16,21,15.90
2012,09,28,16,22,15.90
2012,09,28,16,23,15.90
2012,09,28,16,24,15.90
2012,09,28,16,25,15.90
2012,09,28,16,26,16.00
2012,09,28,16,27,16.00
2012,09,28,16,28,16.00
2012,09,28,16,29,16.10
2012,09,28,16,30,16.10
2012,09,28,16,31,16.10
2012,09,28,16,32,16.10
2012,09,28,16,33,16.10
2012,09,28,16,34,16.20
2012,09,28,16,35,16.20
2012,09,28,16,36,16.20
2012,09,28,16,37,16.20
2012,09,28,16,38,16.20
2012,09,28,16,39,16.20
2012,09,28,16,40,16.20
2012,09,28,16,41,16.20
2012,09,28,16,42,16.20
2012,09,28,16,43,16.30
2012,09,28,16,44,16.30
2012,09,28,16,45,16.30
2012,09,28,16,46,16.30
2012,09,28,16,47,16.30
2012,09,28,16,48,16.30
2012,09,28,16,49,16.30
2012,09,28,16,50,16.30
2012,09,28,16,51,16.30
2012,09,28,16,52,16.30
2012,09,28,16,53,16.20
2012,09,28,16,54,16.20
2012,09,28,16,55,16.20
2012,09,28,16,56,16.20
2012,09,28,16,57,16.20
2012,09,28,16,58,16.30
2012,09,28,16,59,16.30
2012,09,28,17,00,16.30
2012,09,28,17,01,16.30
2012,09,28,17,02,16.30
2012,09,28,17,03,16.40
2012,09,28,17,04,16.40
2012,09,28,17,05,16.30
2012,09,28,17,06,16.30
2012,09,28,17,07,16.30
2012,09,28,17,08,16.30
2012,09,28,17,09,16.30
2012,09,28,17,10,16.30
2012,09,28,17,11,16.20
2012,09,28,17,12,16.20
2012,09,28,17,13,16.20
2012,09,28,17,14,16.20
2012,09,28,17,15,16.20
2012,09,28,17,16,16.20
2012,09,28,17,17,16.20
2012,09,28,17,18,16.10
2012,09,28,17,19,16.10
2012,09,28,17,20,16.00
2012,09,28,17,21,16.00
2012,09,28,17,22,15.90